This is the latest recevied weather packets stored in our database for station/object KB1WCR. If no packets are shown the sender has not sent any weather packets the latest 10 day(s).
| Time | Temp. | Humidity | Pressure | Rain* | Wind** | Luminosity | Snow |
|---|---|---|---|---|---|---|---|
| 1777994235 | 22.78° C | 54% | 1007.6 hPa | 0 mm | - | 715 W/m² | - |
| 1777993933 | 23.33° C | 52% | 1008 hPa | 0 mm | - | 710 W/m² | - |
| 1777993629 | 22.78° C | 53% | 1007.9 hPa | 0 mm | - | 705 W/m² | - |
| 1777993327 | 22.22° C | 52% | 1007.9 hPa | 0 mm | - | 719 W/m² | - |
| 1777993026 | 22.22° C | 52% | 1007.9 hPa | 0 mm | - | 711 W/m² | - |
| 1777992726 | 22.22° C | 54% | 1007.8 hPa | 0 mm | - | 717 W/m² | - |
| 1777992423 | 21.67° C | 53% | 1007.8 hPa | 0 mm | - | 789 W/m² | - |
| 1777992121 | 20.56° C | 56% | 1007.9 hPa | 0 mm | - | 782 W/m² | - |
| 1777991817 | 20.56° C | 55% | 1008 hPa | 0 mm | - | 328 W/m² | - |
| 1777991515 | 20.56° C | 55% | 1007.9 hPa | 0 mm | - | 269 W/m² | - |
| 1777991211 | 20° C | 57% | 1007.7 hPa | 0 mm | - | 245 W/m² | - |
| 1777990909 | 20° C | 59% | 1007.8 hPa | 0 mm | - | 227 W/m² | - |
| 1777990607 | 20° C | 57% | 1007.4 hPa | 0 mm | - | 139 W/m² | - |
| 1777989999 | 20° C | 56% | 1007.3 hPa | 0 mm | - | 167 W/m² | - |
| 1777989697 | 20° C | 56% | 1007.3 hPa | 0 mm | - | 345 W/m² | - |
| 1777989392 | 20.56° C | 55% | 1007.2 hPa | 0 mm | - | 256 W/m² | - |
| 1777989089 | 20.56° C | 56% | 1007.4 hPa | 0 mm | - | 526 W/m² | - |
| 1777988785 | 20° C | 55% | 1007.6 hPa | 0 mm | - | 641 W/m² | - |
| 1777988483 | 19.44° C | 57% | 1007.7 hPa | 0 mm | - | 576 W/m² | - |
| 1777988180 | 18.89° C | 58% | 1008 hPa | 0 mm | - | 557 W/m² | - |
| 1777987875 | 18.33° C | 60% | 1007.9 hPa | 0 mm | - | 538 W/m² | - |
| 1777987572 | 18.33° C | 60% | 1008 hPa | 0 mm | - | 223 W/m² | - |
| 1777987270 | 18.33° C | 62% | 1008.1 hPa | 0 mm | - | 316 W/m² | - |
| 1777986966 | 18.33° C | 61% | 1008.1 hPa | 0 mm | - | 560 W/m² | - |
| 1777986664 | 17.78° C | 61% | 1008.2 hPa | 0 mm | - | 403 W/m² | - |
* Rain latest hour (hover to see other rain measurements)
** Current wind speed in m/s (hover to see current wind gust speed)